Regional Weather Roundup
Issued by NWS Green Bay, WI

Home | Current Version | Previous Version | Graphics & Text | Print | Product List | Glossary Off
Versions: 1 2 3 4 5 6 7 8 9 10 11 12 13 14 15 16 17 18 19 20 21 22 23 24 25 26 27 28 29 30 31 32 33 34 35 36 37 38 39 40 41 42 43 44 45 46 47 48 49 50

843
ASUS43 KGRB 281001
RWRGRB

NORTH-CENTRAL AND NORTHEAST WISCONSIN REGIONAL WEATHER ROUNDUP
NATIONAL WEATHER SERVICE GREEN BAY WI
500 AM CDT FRI JUL 28 2017

WIZ005-009-010>012-018-019-281100-
NORTH CENTRAL WISCONSIN

CITY           SKY/WX    TMP DP  RH WIND       PRES   REMARKS
IRONWOOD       CLEAR     50  49  96 CALM      30.13R FOG
MANITOWISH WTR NOT AVBL
ARBOR VITAE    NOT AVBL
EAGLE RIVER    NOT AVBL
LAND O LAKES   NOT AVBL
RHINELANDER    CLEAR     48  48 100 CALM      30.13R
PHILLIPS       CLEAR     51  51 100 CALM      30.11S
ANTIGO         NOT AVBL
TOMAHAWK       NOT AVBL
MERRILL        NOT AVBL
$$

WIZ013-073-281100-
NORTHEAST WISCONSIN

CITY           SKY/WX    TMP DP  RH WIND       PRES   REMARKS
IRON MOUNTAIN  NOT AVBL
MARINETTE      CLEAR     55  52  89 VRB3      30.07R
$$

WIZ017-030-035>037-045-281100-
CENTRAL WISCONSIN

CITY           SKY/WX    TMP DP  RH WIND       PRES   REMARKS
MEDFORD        NOT AVBL
WAUSAU         CLEAR     58  56  93 N6        30.08S
MOSINEE        NOT AVBL
MARSHFIELD     CLEAR     60  57  89 NE5       30.07S
WISC RAPIDS    CLEAR     63  58  83 NE8       30.08S
STEVENS POINT  NOT AVBL
WAUPACA        NOT AVBL
SHAWANO        CLEAR     59  54  82 N5        30.07S
CLINTONVILLE   CLEAR    N/A N/A N/A N3        30.07S
WAUTOMA        CLEAR     60  56  86 NE3       30.06S
$$

WIZ038-039-048-051-281100-
FOX VALLEY

CITY           SKY/WX    TMP DP  RH WIND       PRES   REMARKS
NWS GREEN BAY  CLEAR     56  54  93 N5        30.04F
APPLETON       NOT AVBL
OSHKOSH        MOCLDY    64  57  78 NE8       30.04S
FOND DU LAC    CLOUDY    65  54  67 NE10      30.05R
$$

WIZ022-050-052-281100-
EAST CENTRAL WISCONSIN

CITY           SKY/WX    TMP DP  RH WIND       PRES   REMARKS
EPHRAIM        NOT AVBL
WASHINGTON ISL NOT AVBL
STURGEON BAY     N/A     60  58  92 N7        30.05S
MANITOWOC      NOT AVBL
SHEBOYGAN      CLOUDY    62  59  90 N10       30.03R
$$

LMZ563-521-522-541>543-281100-
LAKESHORE

STATION/POSITION TIME  TEMP    WIND        PRES    VSBY  WAVE
                       AIR SEA DIR/SP/G                  HT/PER
                 (UTC) (F)     (DEG/KT/KT) (MB)    (MI)  (FT/S)
SHEBOYGAN LKSHOR 0900   65     350/ 15/ 16 1016.1S
KEWAUNEE LKSHORE 0930   60     330/  2/  4 1016.5R
NORTHPORT PIER   0940   63     360/  5/  7 1017.3S
N MID LAKE BUOY  0850   63 66  350/ 12/ 14 1017.7R         2/ 4
S GREEN BAY BUOY 0930   65 71  360/ 14/ 16 1017.3R
CHAMBERS ISLAND  0940   65     360/ 13/ 15 1016.9S
MENOMINEE LKSHOR 0930   61     340/  9/ 11 1017.4R
$$




USA.gov is the U.S. government's official web portal to all federal, state and local government web resources and services.